Regional Weather Roundup
Issued by NWS Cleveland, OH

Home | Current Version | Previous Version | Text Only | Print | Product List | Glossary Off
Versions: 1 2 3 4 5 6 7 8 9 10 11 12 13 14 15 16 17 18 19 20 21 22 23 24 25 26 27 28 29 30 31 32 33 34 35 36 37 38 39 40 41 42 43 44 45 46 47 48 49 50

000
ASUS41 KCLE 052202
RWRCLE
OHIO REGIONAL WEATHER ROUNDUP
NATIONAL WEATHER SERVICE CLEVELAND, OH
600 PM EDT TUE MAY 05 2015

NOTE: "FAIR" INDICATES FEW OR NO CLOUDS BELOW 12,000 FEET WITH NO
SIGNIFICANT WEATHER AND/OR OBSTRUCTIONS TO VISIBILITY.

OHZ001>008-015>018-024>027-034-035-043-044-052300-
   NORTHWEST OHIO

CITY           SKY/WX    TMP DP  RH WIND       PRES   REMARKS
DEFIANCE       LGT RAIN  60  56  86 NE9       30.22R FOG
FINDLAY        MOSUNNY   68  57  68 NE13      30.19F
TOLEDO EXPRESS CLOUDY    56  49  77 E10       30.23F
TOLEDO EXEC    CLOUDY    55  48  77 NE8       30.26S
LIMA           MOSUNNY   78  57  48 W14       30.17F
$$

OHZ009>014-019>023-028>033-038-089-052300-
   NORTHEAST OHIO

CITY           SKY/WX    TMP DP  RH WIND       PRES   REMARKS
CLE-HOPKINS    CLOUDY    54  50  86 N7        30.26F FOG
CLE-LAKEFRONT  CLOUDY    50  48  93 N8        30.25S FOG
CUY CO. ARPT     N/A     54  54 100 NE5       30.26F FOG
LORAIN-ELYRIA  CLOUDY    56  49  77 NE8       30.25F
ASHTABULA      CLOUDY    58  55  90 N5        30.25S FOG
AKRON-CANTON   CLOUDY    74  58  57 NW5       30.22S
WOOSTER        LGT RAIN  71  61  70 NE5       30.22R
MANSFIELD      LGT RAIN  64  63  96 N9        30.21F FOG
YOUNGSTOWN     CLOUDY    70  58  65 W7        30.23S
$$

OHZ042-051>053-060>062-070>072-077>081-052300-
  SOUTHWEST OHIO

CITY           SKY/WX    TMP DP  RH WIND       PRES   REMARKS
CINC-COVINGTON MOSUNNY   80  54  40 S8        30.19F
CINC-LUNKEN    PTSUNNY   81  56  42 S10       30.17F
HAMILTON       MOSUNNY   82  53  36 VRB3      30.18F
DAYTON         PTSUNNY   81  54  39 W7        30.19F
WRIGHT-PAT AFB NOT AVBL
DAYTON GENERAL MOSUNNY   81  51  35 W7        30.18F
WILMINGTON     MOSUNNY   80  52  37 SW9       30.19F
$$

OHZ036-037-039>041-045>050-054>059-063>069-073>076-082>088-052300-
  CENTRAL AND SOUTHEAST OHIO

CITY           SKY/WX    TMP DP  RH WIND       PRES   REMARKS
COLUMBUS       PTSUNNY   78  54  43 W9        30.18S
OSU AIRPORT    PTSUNNY   80  56  43 W9        30.18F
BOLTON FIELD   NOT AVBL
RICKENBACK AFB NOT AVBL
NEWARK         MOSUNNY   77  59  53 SW6       30.18F
MARION         CLOUDY    71  61  70 NE9       30.20S
LANCASTER      MOSUNNY   81  53  37 W9        30.19F
ZANESVILLE     SUNNY     78  55  44 W12       30.19F
NEW PHILLY     PTSUNNY   74  66  76 SE3       30.20F
$$



USA.gov is the U.S. government's official web portal to all federal, state and local government web resources and services.